Погода в Ряжске

Погода в Ряжске : погода сейчас, прогноз погоды и архив. Всё, что Вы хотите узнать о погоде в Ряжске!

Хотите узнать прогноз погоды в Ряжске? Тогда Вам сюда: Погода в Ряжске

Поиск расширенной информации на нашем сайте:

Другие новости

Новости СМИ2

Главная страница сайта

Новости сайта

03.07.2017

Напоминаем, что на нашем специализированном сайте Метеоцентр.Азия вы можете получить высокодетализированные автоматические прогнозы погоды по пунктам России, СНГ и мира в авиационном формате (включающие направление и скорость ветра, видимость, явления погоды, количество и форму облачности, нижнюю и верхнюю границу облачности).


Погода в Ряжске - сегодня

Время (UTC), дата Ветер
(°,м/с) 
Видим.   Явления Облачность Т
(°С)
Тd
(°С)
f(%) Тe
(°С)
Pmin
(гПа)
dP
(гПа)
Po
(мм)
O2
(г/м3)
Тmin Tmax R s Состояние
почвы
09 11.12.17 160 (Ю) 4000 м  слаб. дождь  10/10 300 м 
[Frnb|Ns]
+1.5 +1.1 97 +1  1009  0.1  745  298           
12 11.12.17 170 (Ю) 4000 м  дымка{дождь}  10/10 600 м 
[Sc]
+0.6 -0.5 92 -1  1009.3  0.3  745  300           
15 11.12.17 190 (Ю) 4000 м  дымка{снег}  10/10 600 м 
[Sc]
+0.2 -0.1 98 -1  1010.4  746  300    +2     
18 11.12.17 210 (ЮЗ) 3{10}  н/о  {снег}  10/10 600 м 
[Sc]
-0.1 -2.5 84 -2  1013  2.6  748  302           
21 11.12.17 190 (Ю) 4000 м  дымка  10/10 600 м 
[Sc]
-1.1 -2.5 90 -2  1015  1.9  749  303           
00 12.12.17 190 (Ю) 4000 м  дымка  10/10 600 м 
[Sc]
-0.3 -1.2 94 -1  1015.1  0.1  749  302           
03 12.12.17 190 (Ю) 4000 м  дымка  10/10 600 м 
[Sc]
-0.3 -0.7 97 1015.5  0.4  750  302  -1.2      равномерный
мокрый или
старый снег
100% 
06 12.12.17 170 (Ю) 4000 м  дымка  10/10 600 м 
[Sc]
-0 -0.6 96 +1  1016.6  1.1  750  302           
09 12.12.17 190 (Ю) 4000 м  дымка  10/10 1000 м 
[Sc]
+1 +0.1 94 +2  1017.1  0.6  751  301           
12 12.12.17 130 (ЮВ) 4000 м  дымка  9/9 1000 м 
[Sc]
+0.6 +0 96 +1  1016.7  -0.5  751  302           
15 12.12.17 130 (ЮВ) 4000 м  дымка  10/10 600 м 
[Sc]
+0.7 +0.3 97 +1  1016.6  751  302    +1.5       
18 12.12.17 130 (ЮВ) 1000 м  дымка  10/10 300 м 
[St]
+1.2 +1.2 100 +1  1015.4  -1.2  750  301           
21 12.12.17 130 (ЮВ) 0200 м  туман  ?/?  
+1.3 +1.3 100 +2  1015.1  -0.3  749  300           
00 13.12.17 150 (ЮВ) 0200 м  туман  ?/?  
+1.5 +1.5 100 +1  1014.2  -0.9  749  300           
03 13.12.17 180 (Ю) 0200 м  туман  ?/?  
+2.8 +2.8 100 +2  1013.6  -0.5  748  298  +0.6      равномерный
мокрый или
старый снег
100% 
06 13.12.17 170 (Ю) 1000 м  дымка{туман}  10/10 300 м 
[St]
+3.2 +3.2 100 +4  1013.3  -0.2  748  297           
09 13.12.17 200 (Ю) 0500 м  туман  ?/?  
+3.6 +3.6 100 +3  1013.7  0.4  749  297           
12 13.12.17 200 (Ю) 0500 м  туман  ?/?  
+3.1 +3.1 100 +3  1013.5  -0.3  748  298           
15 13.12.17 200 (Ю) 1000 м  дымка{туман}  10/10 100 м 
[St]
+2.2 +2.2 100 +3  1014.8  1.3  749  299    +3.6       
18 13.12.17 тихо ()   0200 м  туман  ?/?  
+1.9 +1.9 100 +2  1014.5  -0.4  749  299           
21 13.12.17 тихо ()   0200 м  туман  ?/?  
+1.9 +1.9 100 +2  1014.1  -0.4  749  299           
00 14.12.17 090 (В) 0200 м  туман  ?/?  
+1.8 +1.8 100 +1  1013.5  -0.5  748  299           
03 14.12.17 080 (В) 0200 м  слаб. дождь{туман}  ?/?  
+2 +2 100 +1  1012  -1.4  747  299  +1.6    мокрый или
старый снег
50-90% 
06 14.12.17 180 (Ю) 0200 м  слаб. морось{дождь, туман}  ?/?  
+4.1 +4.1 100 +4  1011.4  -0.6  747  296           
09 14.12.17 180 (Ю) 0500 м  слаб. дождь{туман}  ?/?  
+4.6 +4.6 100 +4  1010.8  -0.5  746  295           
Время (UTC), дата Ветер
(°,м/с) 
Видим.   Явления Облачность Т
(°С)
Тd
(°С)
f(%) Тe
(°С)
Pmin
(гПа)
dP
(гПа)
Po
(мм)
O2
(г/м3)
Тmin Tmax R s Состояние
почвы

Для получения пояснительной информации подведите курсор к названию столбца.

ПОГОДА в Ряжске - архив

Всё, что Вы хотите узнать о погоде в Ряжске - удобно и подробно!

Выберите нужную дату (начиная с 1 января 2015* года) и нажмите кнопку "Найти".
Будут отображены архивные сводки погоды по пункту Ряжск, начиная с указанной даты.


Отображать данные в формате CSV (для использования в таблицах Excel)


Внимание! Наш архив погоды предназначен исключительно для личного некоммерческого использования в познавательных целях. Если Вам необходимы официальные справки о состоянии погоды (для производственных, юридических, коммерческих и т.п. целей), обращайтесь в органы Росгидромета.

*Примечание: данная дата относится к архиву по метеостанциям СССР (Россия, СНГ, Балтия).
Архив по метеостанциям Зарубежной Европы и Азии (кроме Китая) хранится 10 дней, по другим регионам земного шара (Китай, Африка, Америка, Австралия, Океания) - 1 день.

Ряжск - район местоположения метеостанции


Название, широта, долгота, высота метеостанции:
Ряжск 53.7°ш. 40.1°д. 127 м над ур. моря [Российская Федерация]

Дополнительная информация

В oтличие oт бoльшинства пoгoдных сайтoв мы публикуем пoдрoбную метеoинфoрмацию в детальнoм прoфессиoнальнoм фoрмате.

Характеристики температуры и влажнoсти вoздуха измеряются на высoте 2 м в тени вдали oт зданий и деревьев.
Скoрoсть ветра измеряется на высoте 10 м (на урoвне рoста челoвека скoрoсть ветра ниже в 1.5-2 раза). Если метеoстанция нахoдится в гoрoде или в лесу, тo скoрoсть ветра занижена на 2-4 м/с пo сравнению с oткрытым местoм. Скoрoсть ветра над акватoриями крупных рек и oзёр, а также на вершинах хoлмoв на 2-5 м/с выше, чем в oбычных услoвиях.
Атмoсфернoе давление в разных тoчках местнoсти мoжет значительнo oтличаться oт давления на метеoстанции, в зависимoсти oт услoвий рельефа (при пoдъёме на 10 м давление пoнижается примернo на 1 мм рт.ст.).